Regional Weather Roundup
Issued by NWS Kansas City/Pleasant Hill, MO

Home | Current Version | Previous Version | Text Only | Print | Product List | Glossary On
Versions: 1 2 3 4 5 6 7 8 9 10 11 12 13 14 15 16 17 18 19 20 21 22 23 24 25 26 27 28 29 30 31 32 33 34 35 36 37 38 39 40 41 42 43 44 45 46 47 48 49 50
000
ASUS43 KEAX 182110
RWREAX

WEATHER ROUNDUP FOR EASTERN KANSAS AND NORTHWEST MISSOURI
NATIONAL WEATHER SERVICE KANSAS CITY/PLEASANT HILL MO
400 PM CDT FRI AUG 18 2017

KSZ040-057-103>105-MOZ028-029-037-043-182200-
...KANSAS CITY METROPOLITAN AREA...

CITY           SKY/WX    TMP DP  RH WIND       PRES   REMARKS
K.C. INTL      MOSUNNY   88  68  51 SW8       29.91F HX  91
K.C. DOWNTOWN  SUNNY     89  69  51 S12       29.89F HX  93
LEES SUMMIT    SUNNY     86  70  58 SW10      29.92F HX  90
OLATHE - IXD   SUNNY     87  66  49 SW9       29.93F
OLATHE - OJC   SUNNY     85  68  56 SW7       29.93F
LAWRENCE       MOSUNNY   90  67  46 VRB7      29.90F HX  93

$$

MOZ001>008-011>017-020>025-030>033-038>040-044>046-053-054-182200-
...NORTHERN AND CENTRAL MISSOURI...

CITY           SKY/WX    TMP DP  RH WIND       PRES   REMARKS
ST. JOSEPH     SUNNY     89  67  47 VRB6      29.89S HX  92
MOSBY          PTCLDY    88  64  45 W8        29.90F
WARRENSBURG    SUNNY     82  70  65 S8        29.92F
WHITEMAN AFB   MOSUNNY   85  70  60 SW10      29.92F
CLINTON        MOSUNNY   82  73  74 S8        29.94F
SEDALIA        MOSUNNY   85  70  60 S9        29.94F
WARSAW         NOT AVBL
CHILLICOTHE      N/A     90  65  43 VRB7      29.88F HX  92
KIRKSVILLE     SUNNY     89  64  43 SW10      29.89F HX  90

$$

MOZ041-047>049-056>058-063>065-088>090-097-182200-
...EASTERN AND SOUTHERN MISSOURI...

CITY           SKY/WX    TMP DP  RH WIND       PRES   REMARKS
ST. LOUIS INTL PTSUNNY   90  60  36 SW8       29.94F
SPIRIT OF STL  PTSUNNY   88  62  41 W3        29.93S
COLUMBIA       CLOUDY    80  67  64 S8        29.95F
JEFFERSON CITY CLOUDY    79  70  74 SE5       29.94F
ROLLA          CLOUDY    78  69  73 S6        29.99F
OSAGE BEACH    CLOUDY    80  70  71 S5        29.97
SPRINGFIELD    CLOUDY    83  74  74 S13       29.97F
BRANSON        PTSUNNY   88  68  51 CALM      30.01S HX  91
JOPLIN         MOSUNNY   89  76  65 SW15      29.95F HX 100
WEST PLAINS    SUNNY     84  60  44 S7        30.01F

$$

IAZ060-094-KSZ022-034>040-054-083-096-NEZ052-066-093-182200-
...KANSAS...SOUTHEAST NEBRASKA AND IOWA...

CITY           SKY/WX    TMP DP  RH WIND       PRES   REMARKS
TOPEKA         SUNNY     90  66  45 W8        29.91S HX  92
MANHATTAN      SUNNY     89  66  46 NW7       29.92F HX  91
EMPORIA        SUNNY     88  66  48 MISG      29.94F HX  90
CHANUTE        MOSUNNY   88  75  65 S8        29.94F HX  97
WICHITA        SUNNY     92  63  38 CALM      29.94F HX  93
OMAHA          MOSUNNY   88  62  41 NW10      29.89F
LINCOLN        SUNNY     86  62  44 NW6       29.93S
FALLS CITY     PTSUNNY   86  66  51 N7        29.90S
LAMONI         MOSUNNY   81  63  54 NW7       29.90R
DES MOINES     MOSUNNY   86  63  45 NW9       29.86S

$$




USA.gov is the U.S. government's official web portal to all federal, state and local government web resources and services.